When you browse on this site, cookies collect data to enhance your experience and personalize the content and advertising you see.
Visit our Privacy Policy to learn more. By continuing to use the site, you agree to this use of cookies and data.

Hourly Weather Krasnaya Lokna

Today, 14 August, Friday

Time Temperature Precipitation Wind Pressure Humidity
00:00 +11°C° 0.2 mm 4 mps 739 mmHg 93%
01:00 +11°C° 0.2 mm 4 mps 739 mmHg 94%
02:00 +11°C° 0.2 mm 4 mps 740 mmHg 94%
03:00 +11°C° 0.4 mm 4 mps 740 mmHg 94%
04:00 +11°C° 0.4 mm 4 mps 740 mmHg 94%
05:00 +11°C° 0.4 mm 4 mps 740 mmHg 94%
06:00 +11°C° 0 mm 4 mps 740 mmHg 90%
07:00 +12°C° 0 mm 4 mps 740 mmHg 86%
08:00 +13°C° 0 mm 4 mps 740 mmHg 82%
09:00 +14°C° 0 mm 5 mps 740 mmHg 75%
10:00 +15°C° 0 mm 5 mps 740 mmHg 67%
11:00 +17°C° 0 mm 5 mps 740 mmHg 60%
12:00 +16°C° 0.1 mm 5 mps 740 mmHg 61%
13:00 +16°C° 0.1 mm 5 mps 740 mmHg 63%
14:00 +15°C° 0.1 mm 5 mps 740 mmHg 65%
15:00 +15°C° 0 mm 4 mps 741 mmHg 66%
16:00 +15°C° 0 mm 4 mps 741 mmHg 67%
17:00 +15°C° 0 mm 4 mps 741 mmHg 68%
18:00 +14°C° 0 mm 3 mps 741 mmHg 73%
19:00 +12°C° 0 mm 3 mps 741 mmHg 77%
20:00 +12°C° 0 mm 2 mps 741 mmHg 82%
21:00 +10°C° 0 mm 2 mps 741 mmHg 82%
22:00 +10°C° 0 mm 2 mps 742 mmHg 83%
23:00 +9°C° 0 mm 2 mps 742 mmHg 83%

Tomorrow, 15 August, Saturday

Time Temperature Precipitation Wind Pressure Humidity
00:00 +9°C° 0 mm 2 mps 742 mmHg 84%
01:00 +9°C° 0 mm 2 mps 742 mmHg 84%
02:00 +8°C° 0 mm 2 mps 742 mmHg 84%
03:00 +8°C° 0 mm 2 mps 742 mmHg 86%
04:00 +8°C° 0 mm 2 mps 742 mmHg 87%
05:00 +8°C° 0 mm 2 mps 742 mmHg 88%
06:00 +10°C° 0 mm 2 mps 742 mmHg 83%
07:00 +12°C° 0 mm 3 mps 743 mmHg 77%
08:00 +14°C° 0 mm 3 mps 743 mmHg 72%
09:00 +16°C° 0 mm 3 mps 743 mmHg 67%
10:00 +17°C° 0 mm 3 mps 743 mmHg 62%
11:00 +19°C° 0 mm 4 mps 743 mmHg 58%
12:00 +19°C° 0 mm 3 mps 743 mmHg 57%
13:00 +19°C° 0 mm 3 mps 742 mmHg 57%
14:00 +19°C° 0 mm 3 mps 742 mmHg 56%
15:00 +19°C° 0 mm 3 mps 742 mmHg 60%
16:00 +18°C° 0 mm 3 mps 742 mmHg 64%
17:00 +18°C° 0 mm 3 mps 742 mmHg 69%
18:00 +17°C° 0 mm 2 mps 742 mmHg 73%
19:00 +15°C° 0 mm 2 mps 741 mmHg 77%
20:00 +14°C° 0 mm 2 mps 741 mmHg 82%
21:00 +13°C° 0 mm 2 mps 741 mmHg 82%
22:00 +13°C° 0 mm 2 mps 741 mmHg 83%
23:00 +12°C° 0 mm 1 mps 742 mmHg 83%

Day after tomorrow, 16 August, Sunday

Time Temperature Precipitation Wind Pressure Humidity
00:00 +12°C° 0 mm 1 mps 741 mmHg 84%
01:00 +12°C° 0 mm 1 mps 741 mmHg 86%
02:00 +12°C° 0 mm 2 mps 741 mmHg 87%
03:00 +13°C° 0 mm 2 mps 741 mmHg 88%
04:00 +13°C° 0 mm 2 mps 741 mmHg 89%
05:00 +13°C° 0 mm 2 mps 740 mmHg 89%
06:00 +14°C° 0 mm 2 mps 740 mmHg 87%
07:00 +15°C° 0 mm 2 mps 741 mmHg 85%
08:00 +16°C° 0 mm 2 mps 741 mmHg 83%
09:00 +17°C° 0 mm 3 mps 740 mmHg 80%
10:00 +18°C° 0 mm 3 mps 740 mmHg 77%
11:00 +19°C° 0 mm 3 mps 740 mmHg 74%
12:00 +20°C° 0 mm 3 mps 740 mmHg 70%
13:00 +21°C° 0 mm 3 mps 740 mmHg 65%
14:00 +22°C° 0 mm 3 mps 740 mmHg 61%
15:00 +22°C° 0 mm 3 mps 740 mmHg 64%
16:00 +22°C° 0 mm 3 mps 739 mmHg 67%
17:00 +23°C° 0 mm 2 mps 739 mmHg 70%
18:00 +20°C° 0 mm 3 mps 739 mmHg 75%
19:00 +19°C° 0 mm 3 mps 739 mmHg 81%
20:00 +17°C° 0 mm 3 mps 739 mmHg 87%
21:00 +17°C° 0 mm 3 mps 739 mmHg 88%
22:00 +17°C° 0 mm 3 mps 739 mmHg 90%
23:00 +16°C° 0 mm 3 mps 739 mmHg 92%

17 August, Monday

Time Temperature Precipitation Wind Pressure Humidity
00:00 +16°C° 0 mm 3 mps 739 mmHg 93%
01:00 +16°C° 0 mm 3 mps 739 mmHg 93%
02:00 +14°C° 0 mm 3 mps 739 mmHg 93%
03:00 +14°C° 0 mm 3 mps 739 mmHg 93%
04:00 +14°C° 0 mm 3 mps 739 mmHg 93%
05:00 +14°C° 0 mm 3 mps 739 mmHg 93%
06:00 +17°C° 0 mm 4 mps 739 mmHg 88%
07:00 +18°C° 0 mm 4 mps 739 mmHg 83%
08:00 +20°C° 0 mm 4 mps 739 mmHg 77%
09:00 +21°C° 0.2 mm 5 mps 739 mmHg 72%
10:00 +23°C° 0.2 mm 5 mps 739 mmHg 67%
11:00 +24°C° 0.2 mm 6 mps 739 mmHg 61%
12:00 +24°C° 0.1 mm 6 mps 739 mmHg 59%
13:00 +26°C° 0.1 mm 6 mps 739 mmHg 57%
14:00 +26°C° 0.1 mm 6 mps 739 mmHg 55%
15:00 +26°C° 0 mm 5 mps 739 mmHg 59%
16:00 +25°C° 0 mm 4 mps 738 mmHg 63%
17:00 +25°C° 0 mm 4 mps 738 mmHg 67%
18:00 +22°C° 0 mm 3 mps 738 mmHg 72%
19:00 +20°C° 0 mm 3 mps 739 mmHg 77%
20:00 +18°C° 0 mm 3 mps 739 mmHg 82%
21:00 +18°C° 0 mm 2 mps 739 mmHg 84%
22:00 +17°C° 0 mm 2 mps 739 mmHg 87%
23:00 +16°C° 0 mm 2 mps 739 mmHg 90%

18 August, Tuesday

Time Temperature Precipitation Wind Pressure Humidity
00:00 +16°C° 0 mm 2 mps 739 mmHg 90%
01:00 +16°C° 0 mm 1 mps 739 mmHg 91%
02:00 +15°C° 0 mm 1 mps 739 mmHg 92%
03:00 +15°C° 0 mm 1 mps 739 mmHg 92%
04:00 +15°C° 0 mm 1 mps 739 mmHg 93%
05:00 +15°C° 0 mm 1 mps 739 mmHg 93%
06:00 +16°C° 0 mm 1 mps 739 mmHg 87%
07:00 +19°C° 0 mm 1 mps 739 mmHg 82%
08:00 +20°C° 0 mm 1 mps 739 mmHg 76%
09:00 +21°C° 0 mm 1 mps 739 mmHg 71%
10:00 +23°C° 0 mm 2 mps 739 mmHg 67%
11:00 +24°C° 0 mm 2 mps 739 mmHg 62%
12:00 +24°C° 0 mm 2 mps 739 mmHg 60%
13:00 +24°C° 0 mm 2 mps 739 mmHg 58%
14:00 +25°C° 0 mm 1 mps 739 mmHg 56%
15:00 +24°C° 0.1 mm 1 mps 738 mmHg 60%
16:00 +24°C° 0.1 mm 1 mps 738 mmHg 64%
17:00 +24°C° 0.1 mm 1 mps 738 mmHg 68%
18:00 +22°C° 0.5 mm 1 mps 738 mmHg 72%
19:00 +21°C° 0.5 mm 1 mps 738 mmHg 76%
20:00 +20°C° 0.5 mm 1 mps 738 mmHg 80%
21:00 +18°C° 0.6 mm 2 mps 738 mmHg 81%
22:00 +18°C° 0.6 mm 2 mps 738 mmHg 83%
23:00 +17°C° 0.6 mm 2 mps 738 mmHg 84%

19 August, Wednesday

Time Temperature Precipitation Wind Pressure Humidity
00:00 +17°C° 0.5 mm 3 mps 738 mmHg 85%
01:00 +17°C° 0.5 mm 3 mps 738 mmHg 87%
02:00 +16°C° 0.5 mm 3 mps 738 mmHg 88%
03:00 +16°C° 0 mm 2 mps 737 mmHg 88%
04:00 +16°C° 0 mm 2 mps 737 mmHg 89%
05:00 +16°C° 0 mm 2 mps 737 mmHg 89%
06:00 +17°C° 0 mm 2 mps 737 mmHg 87%
07:00 +19°C° 0 mm 1 mps 737 mmHg 84%
08:00 +20°C° 0 mm 1 mps 737 mmHg 82%
09:00 +21°C° 0.2 mm 1 mps 737 mmHg 77%
10:00 +22°C° 0.2 mm 1 mps 737 mmHg 71%
11:00 +24°C° 0.2 mm 1 mps 737 mmHg 66%
12:00 +24°C° 0.6 mm 1 mps 737 mmHg 64%
13:00 +25°C° 0.6 mm 1 mps 737 mmHg 61%
14:00 +25°C° 0.6 mm 1 mps 737 mmHg 58%
15:00 +25°C° 0.3 mm 1 mps 737 mmHg 62%
16:00 +24°C° 0.3 mm 1 mps 737 mmHg 65%
17:00 +24°C° 0.3 mm 1 mps 736 mmHg 68%
18:00 +23°C° 0.1 mm 1 mps 736 mmHg 72%
19:00 +21°C° 0.1 mm 1 mps 736 mmHg 75%
20:00 +19°C° 0.1 mm 1 mps 736 mmHg 79%
21:00 +18°C° 0 mm 2 mps 736 mmHg 80%
22:00 +18°C° 0 mm 2 mps 736 mmHg 82%
23:00 +17°C° 0 mm 2 mps 736 mmHg 84%
Show more